Карточка аэропорта UHHH

Внимание!
Информация на этой странице в стадии наполнения.
Если вы не увидели какой-то информации, или заметили неточность - пожалуйста сообщите нам!
Спасибо!
Команда RU-STAFF
Название аэропортаНовый
Название аэропорта (англ.)Novy
Превышение244 ft. (74.4 m.)
Координаты48°31.68', 135°11.4'
Высота перехода900m
Эшелон переходаFL050
Коды ответчика0201-0277
Зона ОрВДХабаровск РПИ (UHHH)
Данные METARUHHH 271130Z 17003MPS 7000 NSC M21/M23 Q1017 R23R/090060 NOSIG RMK QFE757/1009
Проноз погоды (TAF)UHHH 271049Z 2712/2818 VRB01MPS 5000 BR FU NSC TEMPO 2712/2721 3100 BR FU FM280000 23005MPS 9999 SCT020 TEMPO 2803/2812 25010MPS 3100 -SN SCT011 BKN020
NOTAMshow/hide NOTAM
AWOS   TABLE

Информация о ВПП

ВПП Длина ВПП (м.) Покрытие Курс ВПП Частота ILS
05R4000Асфальтобетон53110.3
05L3500Асфальтобетон53 
23R3500Асфальтобетон233 
23L4000Асфальтобетон233111.15

Диспетчерские позиции

Позывной Наименование органа УВД Частота
UHHH_APPХабаровск-Подход125.2
UHHH_R_APPХабаровск-Круг120.3
UHHH_TWRХабаровск-Старт/Посадка119.3
UHHH_GNDХабаровск Руление121.8



Спутниковое изображение